www.pogodaiklimat.ru
ПОГОДА в Фармингтоне
Время
и дата
20:53 28.01
21:53 28.01
22:53 28.01
23:53 28.01
00:53 29.01
01:53 29.01
02:53 29.01
03:53 29.01
04:53 29.01
05:53 29.01
06:53 29.01
07:53 29.01
08:53 29.01
09:53 29.01
10:53 29.01
11:53 29.01
12:53 29.01
13:53 29.01
14:53 29.01
15:53 29.01
16:53 29.01
17:53 29.01
18:53 29.01
19:53 29.01
20:53 29.01
21:53 29.01
22:53 29.01
23:53 29.01
00:53 30.01
01:53 30.01
02:53 30.01
03:53 30.01
04:53 30.01
05:53 30.01
06:53 30.01
07:53 30.01
08:53 30.01
09:53 30.01
10:53 30.01
11:53 30.01
12:53 30.01
13:53 30.01
14:53 30.01
15:53 30.01
16:53 30.01
17:53 30.01
18:53 30.01
19:53 30.01
Ветер
(напр.,м/с)
Видим. Явления Облачность Т
(С)
Тd
(С)
f
(%)
Тe
(С)
Тes
(С)
Комфортность P
(гПа)
Po
(гПа)
Тmin
(С)
Tmax
(С)
R
(мм)
R24
(мм)
S
(см)
В 3 16 км ясно -1.7 -7.8 63 -6 -6 1017.4 828.2
СВ 3 16 км ясно -3.9 -8.3 71 -9 -9 1017.6 828.2
В 3 16 км ясно -3.9 -8.3 71 -9 -9 1017.2 828.5 -4.4 +5.0
В 4 16 км ясно -4.4 -8.3 74 -11 -11 1016.9 828.5
В 3 16 км ясно -5.0 -8.9 74 -10 -10 1016.1 828.0
В 3 16 км ясно -5.0 -9.4 71 -10 -10 1015.5 828.0
В 3 16 км ясно -6.1 -10.0 74 -12 -12 1015.6 827.7
В 3 16 км ясно -6.1 -9.4 77 -12 -12 1015.3 827.4
В 3 16 км ясно -6.7 -9.4 81 -12 -12 1015.7 827.7 -7.2 -3.3
ЮВ 4 16 км ясно -6.7 -10.0 77 -13 -13 1015.8 827.1
В 2 16 км ясно -7.2 -10.6 77 -12 -12 1016.7 827.4
В 3 16 км ясно -6.1 -10.0 74 -12 -12 1016.8 827.7
В 4 16 км ясно -3.3 -8.9 65 -9 -9 1016.6 828.0
В 5 16 км ясно +0.6 -8.3 51 -5 -3 1016.4 828.0
ЮВ 5 16 км ясно +3.3 -9.4 39 -1 +1 1015.3 827.4 -7.2 +3.3
В 6
{9}
16 км ясно +5.0 -9.4 34 +1 +3 1013.2 826.0
СВ 3 16 км ясно +7.2 -9.4 30 +5 +11 1011.6 824.9
ЮВ 3 16 км ясно +8.3 -9.4 27 +7 +12 1010.4 824.4
штиль 0 16 км ясно +10.0 -9.4 24 +10 +18 1009.5 823.8
штиль 0 16 км ясно +10.0 -10.0 23 +10 +15 1009.6 823.8
штиль 0 16 км ясно +9.4 -12.2 20 +10 +11 1009.8 823.8 +3.3 +10.0
С 5 16 км ясно +4.4 -8.3 39 0 0 1011.5 824.1
В 2 16 км ясно +1.7 -7.8 49 -1 -1 1013.2 824.9
СВ 2 16 км ясно 0.0 -7.8 56 -3 -3 1013.7 825.5
СВ 4 16 км ясно -1.7 -7.8 63 -7 -7 1013.8 825.7
СВ 2 16 км ясно -1.7 -8.3 61 -5 -5 1013.6 826.0
В 3 16 км ясно -3.3 -8.3 68 -8 -8 1013.8 826.3 -3.3 +9.4
С 2 16 км ясно -3.9 -8.9 68 -8 -8 1013.8 826.6
В 3 16 км ясно -4.4 -8.9 71 -10 -10 1013.2 826.3
В 2 16 км ясно -2.2 -9.4 58 -6 -6 1012.5 826.6
В 4 16 км ясно -2.2 -10.0 55 -8 -8 1012.6 826.6
СВ 4 16 км ясно -5.0 -10.0 68 -11 -11 1013.1 826.9
С 4 16 км ясно -5.6 -10.6 68 -12 -12 1013.8 827.1 -6.1 -2.2
штиль 0 16 км ясно -6.1 -10.6 70 -7 -7 1015.5 827.4
СВ 3 16 км ясно -6.7 -11.1 71 -12 -12 1016.8 828.0
СВ 3 16 км ясно -5.6 -10.6 68 -11 -11 1017.8 828.5
В 4 16 км ясно -2.2 -9.4 58 -8 -7 1017.7 828.8
В 4 16 км ясно +1.7 -8.3 47 -3 -1 1017.5 829.3
СВ 2 16 км ясно +5.0 -7.8 39 +3 +8 1016.6 829.1 -7.8 +5.6
нст 2 16 км 8/0 2100 m
[Ac]
+6.7 -8.3 33 +5 +8 1015.7 828.5
СВ 2 16 км 5/2 1950 m
[Ac]
+7.8 -7.8 32 +7 +11 1014.4 827.4
Ю 4 16 км 8/8 1950 m
[Ac]
+7.8 -8.3 31 +5 +6 1013.3 826.9
З 3 16 км 8/0 2250 m
[Ac]
+7.8 -8.3 31 +6 +8 1013.1 826.9
СЗ 4 16 км 10/0 2100 m
[Ac]
+6.7 -7.8 35 +4 +5 1014.0 826.9
З 8 16 км 10/0 2250 m
[Ac]
+6.1 -8.3 35 +2 +2 1014.9 827.4 +5.0 +8.9
З 3 16 км 10/0 2550 m
[Ac]
+4.4 -8.3 39 +2 +2 1015.8 827.7
СЗ 3 16 км 10/0 2100 m
[Ac]
+2.8 -7.2 48 -1 -1 1016.4 828.0
штиль 0 16 км 10/0 2100 m
[Ac]
+2.8 -6.7 50 +2 +2 1016.1 828.0
Местоположение метеостанции Four Corners Regional Airport: широта 36.7436 долгота -108.2292 высота над уровнем моря 1677 м.
В архиве по умолчанию представлена погода в Фармингтоне за последние 1-2 суток. Обновление информации о фактической погоде в базе происходит ежечасно! Архивные данные за месяц целиком и за предыдущие месяцы Вы можете получить, выбрав интересующий диапазон дат из раскрывающегося списка и нажав кнопку "Ввод!".
Внимание! Архив погоды МЕТАР в базе сайта по станциям, не включенным в климатический монитор, хранится не более 60 дней. Нет смысла пытаться выбрать более раннюю дату.
*Определитесь, кто Вы:
Внимание! Время в таблицах - местное (без учета летнего времени). Для получения всемирного времени необходимо вычесть поправку, которая равна -7 ч.
Смотрите также архив погоды в соседних городах и на ближайших метеорологических станциях:
Партнеры нашего сайта:      
Пояснения к столбцам:
  • Ветер - указаны скорость ветра в м/с - средняя за 10 мин, порывы в срок и между сроками (в фигурных скобках) и направление, откуда дует ветер: С - северный,
  • СВ - северо-восточный, В - восточный, ЮВ - юго-восточный, Ю - южный, ЮЗ - юго-западный, З - западный, СЗ - северо-западный.
  • Видимость - горизонтальная дальность видимости в метрах или километрах. При видимости от 1 до 10 км при отсутствии осадков обычно наблюдается дымка, при ухудшении видимости до 1 км и менее - туман. В сухую погоду видимость может ухудшаться дымом, пылью или мглою.
  • Явления - указаны атмосферные явления, наблюдавшиеся в срок или в последний час перед сроком; фигурными скобками обозначены явления, наблюдавшиеся между сроками (за 1-3 часа до срока); квадратными скобками обозначены град или гололедные отложения с указанием их диаметра в мм.
  • Облачность - указаны через наклонную черту общая и нижняя облачность в баллах и высота нижней границы облаков в метрах; квадратными скобками обозначены формы облаков: Ci - перистые, Cs - перисто-слоистые, Cc - перисто-кучевые, Ac - высококучевые, As - высокослоистые, Sc - слоисто-кучевые, Ns - слоисто-дождевые, Cu - кучевые, Cb - кучево-дождевые. Подробнее классификацию облаков см. в Атласе облаков (PDF).
  • T - Температура воздуха - температура, измеренная на высоте 2 м над землей.
  • Td - Температура точки росы - температура, при понижении до которой содержащийся в воздухе водяной пар достигнет насыщения.
  • f - Относительная влажность воздуха - влажноcть воздуха, измеренная на высоте 2 м над землей.
  • Te - Эффективная температура - температура, которую ощущает одетый по сезону человек в тени. Характеристика душности погоды. При расчете учитывается влияние влажности воздуха и скорости ветра на теплоощущения человека.
  • Tes - Эффективная температура на солнце - температура, которую ощущает человек, с поправкой на солнечный нагрев. Характеристика знойности погоды. Зависит от высоты солнца над горизонтом, облачности и скорости ветра. Ночью, в пасмурную погоду, а также при ветре 12 м/с и более поправка равна нулю.
  • P - Атмосферное давление - приведенное к уровню моря атмосферное давление.
  • Po - Атмосферное давление - измеренное на уровне метеостанции атмосферное давление.
  • Tmin - Минимальная температура - минимум температуры воздуха на высоте 2 м над землей.
  • Tmax - Максимальная температура - максимум температуры воздуха на высоте 2 м над землей.
  • R - Количество осадков - Количество выпавших осадков за период времени, мм. При наведении курсора мыши на число - период времени, за который выпало указанное количество осадков.
  • R24 - Количество осадков - Количество выпавших осадков за 24 часа, мм.
  • S - Снежный покров - Высота снежного покрова, см. При наведении курсора мыши на число - состояние снежного покрова и степень покрытия местности в баллах.